Location: Altamont Fire District 1
(42.7027°N, 74.0250°W)
Time: 10:51:57
(UTC+00:00)

Daily predictions for brighter satellites

Satellite Brightness Start Highest point End
(mag) Time Altitude Azimuth Time Altitude Azimuth Time Altitude Azimuth
Cosmos 1939 Rocket 3.2 21:51:32 10° SSE 21:55:30 47° ENE 21:59:26 10° N
H-2A R/B 2.9 21:51:46 10° ESE 21:56:01 26° ENE 22:00:10 10° N
Cosmos 1656 3.7 21:50:57 10° NNW 21:56:32 84° ENE 22:02:09 10° SSE
Cosmos 1812 4.5 21:56:59 10° ESE 21:59:00 14° E 22:01:00 10° NE
FengYun 1-2 T 4.2 21:54:15 10° SSE 21:59:48 67° ENE 22:05:18 10° N
COSMO-SKYMED 1 4.2 21:58:13 10° NE 22:00:57 16° E 22:03:39 10° SE
USA 276 2.0 22:01:41 10° WNW 22:04:49 74° NNE 22:07:56 10° ESE
Cosmos 1763 Rocket 3.4 22:01:10 10° SSW 22:06:13 81° ESE 22:11:20 10° NNE
Cosmos 2034 Rocket 4.0 22:02:32 10° S 22:08:42 89° W 22:14:53 10° N
Cosmos 1697 Rocket 2.8 22:03:16 10° NNW 22:08:46 54° ENE 22:14:15 10° SE
Meteor PRIRODA 4.1 22:06:00 10° S 22:09:36 66° WSW 22:13:13 10° NNW
Cosmos 841 Rocket 4.0 22:07:11 10° S 22:11:57 39° ESE 22:16:43 10° NE
Cosmos 1980 Rocket 2.9 22:07:33 10° N 22:12:35 31° NE 22:17:33 10° ESE
Cosmos 2369 4.2 22:07:19 10° NNW 22:12:41 39° ENE 22:18:00 10° SE
Cosmos 1602 3.9 22:12:46 10° N 22:16:31 47° ENE 22:20:16 10° SSE
Cosmos 1937 Rocket 3.7 22:11:54 10° N 22:17:06 50° ENE 22:22:14 10° SE
Meteor 1-25 Rocket 4.1 22:14:04 10° N 22:19:39 73° E 22:25:15 10° SSE
Cosmos 1782 3.1 22:17:30 10° SSE 22:21:18 44° E 22:25:07 10° NNE
Okean O Rocket 2.7 22:18:00 10° ESE 22:21:30 23° ENE 22:25:00 10° NNE
SL-16 R/B 3.9 22:19:45 10° NNE 22:22:19 13° NE 22:23:10 13° NE
NOAA 6 4.0 22:17:22 10° SSE 22:22:30 84° ENE 22:27:39 10° NNW
Cosmos 1743 Rocket 3.6 22:20:24 10° N 22:24:44 81° W 22:29:03 10° S
Cosmos 2082 Rocket 2.6 22:19:24 10° S 22:24:46 44° ESE 22:30:06 10° NE
Cosmos 1151 Rocket 3.9 22:21:31 10° SSE 22:25:09 27° E 22:28:48 10° NNE
Cosmos 990 Rocket 4.2 22:20:08 10° NNW 22:25:20 75° WSW 22:30:27 10° SSE
Meteor 2-21 4.5 22:20:08 10° N 22:26:06 55° ENE 22:32:00 10° SSE
USA 267 3.8 22:20:28 10° NE 22:26:48 55° NNW 22:33:08 10° WSW
ISS -2.5 22:24:45 10° NW 22:27:42 26° NNE 22:29:10 19° ENE
Cosmos 1634 Rocket 4.0 22:23:55 10° S 22:30:09 64° E 22:36:25 10° NNE
CORIOLIS 4.1 22:24:51 10° SSE 22:30:15 87° ENE 22:35:43 10° NNW
Cosmos 372 Rocket 4.3 22:25:45 10° N 22:30:43 42° ENE 22:35:40 10° SE
CZ-4B DEB 4.1 22:26:01 10° SSE 22:31:31 78° ENE 22:37:02 10° NNW
Cosmos 1340 Rocket 4.1 22:30:13 10° NNW 22:34:07 46° W 22:38:01 10° SSW
Cosmos 1666 Rocket 4.1 22:32:02 10° N 22:36:08 35° ENE 22:40:10 10° SE
CZ-2D R/B 3.2 22:32:24 10° SSE 22:36:11 62° ENE 22:39:58 10° N
Cosmos 2278 4.3 22:31:48 10° N 22:37:01 35° ENE 22:42:12 10° ESE
Cosmos 2026 Rocket 3.9 22:33:08 10° N 22:39:18 77° E 22:45:20 10° SSE
Cosmos 1328 Rocket 4.4 22:36:19 10° SSE 22:40:07 29° E 22:42:12 20° NE
MOS 1-B Rocket 4.1 22:35:05 10° NNE 22:40:59 64° ESE 22:47:43 10° S
Lacrosse 5 rocket 3.0 22:40:24 10° NNW 22:42:57 16° NNE 22:43:19 16° NNE
COSMOS 2406 3.3 22:37:18 10° SSW 22:43:04 80° WNW 22:48:50 10° NNE
USA 229 DEB 4.1 22:36:44 10° NW 22:44:09 81° WSW 22:52:01 10° SSE
USA 229 4.1 22:36:49 10° NW 22:44:15 82° WSW 22:52:06 10° SSE
ARGOS 3.4 22:41:57 10° SE 22:47:04 46° ENE 22:52:13 10° N
COSMOS 2455 2.8 22:42:09 10° SSW 22:48:10 82° ESE 22:53:25 14° NNE
Cosmos 1833 Rocket 3.3 22:43:02 10° SW 22:48:32 56° WNW 22:54:05 10° NNE
Cosmos 858 Rocket 4.5 22:43:49 10° NNW 22:49:09 86° ENE 22:54:25 10° SSE
SKYMED 2 3.7 22:45:24 12° NNE 22:49:19 51° E 22:53:32 10° S
Cosmos 1500 3.0 22:46:09 10° N 22:49:54 79° E 22:53:37 10° S
Meteor 2-14 Rocket 4.4 22:43:53 10° N 22:50:01 85° E 22:56:06 10° S
ATLAS CENTAUR R/B 3.5 22:41:30 10° WSW 22:51:37 56° NW 22:54:50 19° NNE
Landsat 5 3.9 22:50:05 26° NE 22:51:38 36° E 22:55:19 10° SSE
SL-08 RB Rocket 4.2 22:52:36 10° SE 22:56:50 36° ENE 23:01:04 10° N
PAYLOAD B 4.4 22:53:32 10° SSE 22:59:09 80° WSW 23:04:47 10° NNW
USA 234 3.4 22:52:49 10° SE 22:59:22 75° SW 23:05:55 10° NW
Cosmos 1570 Rocket 4.0 22:55:14 10° S 23:00:21 56° ESE 23:03:29 23° NE
Cosmos 540 Rocket 4.1 22:57:29 10° SW 23:02:29 55° WNW 23:07:31 10° NNE
Sich 1 3.5 23:00:52 10° NNW 23:05:06 60° W 23:09:20 10° S
CZ-4B R/B 3.0 22:59:41 10° SSE 23:05:07 81° ENE 23:10:30 10° NNW
GEOS 3 Rocket 4.2 23:05:32 32° ENE 23:06:40 36° NE 23:11:22 10° NNW
Cosmos 1814 Rocket 3.9 23:02:13 10° SSW 23:07:26 76° ESE 23:10:55 21° NNE
Cosmos 44 Rocket 4.2 23:04:05 10° NNW 23:08:02 29° NE 23:08:02 29° NE
CZ-2C R/B 2.4 23:04:54 10° NNE 23:10:07 84° ESE 23:15:17 10° SSW
Cosmos 1818 4.1 23:05:37 10° NNW 23:10:38 35° NE 23:11:07 35° ENE
GPS 2-04 Rocket1 4.3 23:07:45 10° WSW 23:11:19 28° S 23:12:58 21° SSE
Meteor 2-21 Rocket 4.4 23:05:56 10° N 23:12:04 87° W 23:18:08 10° S
Meteor 2-8 Rocket 4.4 23:06:14 10° S 23:12:17 64° E 23:18:23 10° NNE
NOSS 2-2 (D) 4.4 23:08:25 10° NW 23:13:52 86° NE 23:21:33 10° SE
Meteor 1-10 Rocket 4.4 23:08:42 10° SSE 23:14:13 48° E 23:16:43 29° NE
Cosmos 1900 4.4 23:09:51 10° SSW 23:14:34 54° ESE 23:15:35 45° ENE
CZ-4C R/B 4.4 23:18:27 24° SSE 23:18:27 24° SSE 23:20:00 10° S
Meteor 1-11 Rocket 4.4 23:11:38 10° N 23:15:44 34° NE 23:15:44 34° NE
deb Chang Zheng 4 3.6 23:13:07 10° SSE 23:17:25 80° WSW 23:21:46 10° NNW
Cosmos 1666 2.5 23:15:47 10° N 23:19:31 84° W 23:23:13 10° S
Feng Yun 1-1 Rocket 4.3 23:20:22 10° SSE 23:26:13 66° ENE 23:32:03 10° N
CZ-4C R/B 2.9 23:21:44 10° NNW 23:29:05 75° NE 23:36:21 15° SE
Cosmos 2360 Rocket 4.2 23:26:36 10° N 23:27:34 13° NNE 23:27:34 13° NNE
Cosmos 2208 Rocket 4.0 23:27:56 10° SSW 23:33:19 88° ESE 23:35:28 38° NNE
Cosmos 1812 4.0 23:30:44 10° SSW 23:34:20 39° WNW 23:36:50 18° NNW
H-2A R/B 3.4 23:30:22 10° SSW 23:35:14 40° W 23:40:01 10° NNW
COSMO-SKYMED 1 3.5 23:34:00 15° N 23:37:21 47° WNW 23:41:30 10° SW
Spot 2 4.3 23:42:21 10° SSE 23:47:27 84° ENE 23:52:38 10° NNW
Cosmos 921 Rocket 3.8 23:44:39 10° SSW 23:47:24 41° SSW 23:47:24 41° SSW
Cosmos 1633 Rocket 4.1 23:44:40 10° NNW 23:48:50 45° W 23:53:01 10° SSW
Cosmos 2322 Rocket 3.6 23:44:58 10° N 23:47:27 24° N 23:47:27 24° N
